Regional Weather Roundup
Issued by NWS

Home | Current Version | Previous Version | Text Only | Print | Product List | Glossary On
Versions: 1 2 3 4 5 6 7 8 9 10 11 12 13 14 15 16 17 18 19 20 21 22 23 24 25 26 27 28 29 30 31 32 33 34 35 36 37 38 39 40 41 42 43 44 45 46 47 48 49 50
000
ASHW40 PHFO 170343
RWRHI

WEATHER ROUNDUP FOR HAWAII
NATIONAL WEATHER SERVICE HONOLULU HI
500 PM HST TUE SEP 16 2014

THIS IS AN AUTOMATED REPORT THAT HAS NOT BEEN QUALITY CONTROLLED.

NOTE..."FAIR" INDICATES FEW OR NO CLOUDS BELOW 12,000 FEET WITH NO
SIGNIFICANT WEATHER AND/OR OBSTRUCTIONS TO VISIBILITY.

* - THESE SITES REPORT LIMITED FIELDS

HIZ001>004-170400-
KAUAI-NIIHAU-

CITY           SKY/WX    TMP DP  RH WIND       PRES   REMARKS
LIHUE APT      PTSUNNY   85  73  67 NE14      29.93R HX  91
PORT ALLEN*      N/A     82 N/A N/A W7          N/A
POIPU*           N/A     86 N/A N/A NE7G15      N/A
PRINCEVILLE*   NOT AVBL
KOKOLE POINT*  NOT AVBL
MOLOAA DAIRY*  NOT AVBL
WAIMEA HTS*      N/A     84  68  58 SW6G14      N/A
PUU OPAE*        N/A     75  64  69 S3G10       N/A
PUU LUA*       NOT AVBL
MAKAHA RIDGE*  NOT AVBL
$$

HIZ005>011-170400-
OAHU-

CITY           SKY/WX    TMP DP  RH WIND       PRES   REMARKS
HONOLULU       PTSUNNY   87  66  49 NE12      29.89R
KALAELOA       CLOUDY    84  72  67 S6        29.90S
KANEOHE MCB    MOSUNNY   84  72  66 N8        29.91R HX  90
WHEELER FIELD  CLOUDY    82  67  58 NE10      29.92R
BELLOWS*         N/A    N/A N/A N/A N7          N/A
KAHUKU*          N/A    N/A N/A N/A NE7G15      N/A
WHEELER*       NOT AVBL
WAIANAE HARBOR NOT AVBL
DILLINGHAM*      N/A     90  72  55 N3G12       N/A  HX  96
KAHUKU TRN*      N/A     81  72  74 E9G17       N/A
KAWAILOA*      NOT AVBL
KII*             N/A     82  73  74 NE9         N/A
MAKUA RANGE*     N/A     84  68  58 E12G20      N/A
OAHU FOREST NW   N/A     70  70 100 NE10G16     N/A
SCHOFIELD BRK*   N/A     81  64  57 MISG        N/A
SCHOFIELD S*   NOT AVBL
WAIANAE VLY*     N/A     81  64  57 VRB7G16     N/A
KUAOKALA*        N/A     79  68  69 E1          N/A
HONOULIUULI*   NOT AVBL
MOKUOLOE IS*     N/A    N/A N/A N/A MISG        N/A
PALEHUA*         N/A     81  64  57 CALM        N/A
WAIAWA PHB*    NOT AVBL
$$

HIZ012>013-170400-
MOLOKAI-

CITY           SKY/WX    TMP DP  RH WIND       PRES   REMARKS
MOLOKAI AIRPT  MOSUNNY   81  74  79 N13       29.91R
KALAUPAPA      NOT AVBL
MAKAPULAPAI*     N/A     82  72  69 E12         N/A
MOLOKAI 1*       N/A     72  66  83 E5G13       N/A
PUU ALII*        N/A     70  63  78 E1          N/A
$$

HIZ016-170400-
KAHOOLAWE-

CITY           SKY/WX    TMP DP  RH WIND       PRES   REMARKS
KAHOOLAWE*       N/A     79 N/A N/A NE14G21     N/A
HAKIOAWA*      NOT AVBL
HONOKANAIA*      N/A     88  71  57 NE12G24     N/A  HX  94
KANELOA*         N/A     82  70  65 E13G22    29.13S
KEALIALALO*    NOT AVBL
LUA MAKIKA*    NOT AVBL
$$

HIZ014>015-170400-
LANAI-

CITY           SKY/WX    TMP DP  RH WIND       PRES   REMARKS
LANAI CITY     FAIR      79  69  71 NE16      29.96S
LANAI 1*         N/A     81  75  83 NE15G25     N/A
$$

HIZ017>028-170400-
MAUI-

CITY           SKY/WX    TMP DP  RH WIND       PRES   REMARKS
KAHULUI        MOSUNNY   85  71  63 NE15      29.90R HX  90
KAPALUA-W MAUI MOSUNNY   84 N/A N/A N17G25    29.90R
HANA AIRPORT   CLOUDY    77  73  88 CALM      29.95R
HANA*            N/A     84 N/A N/A N5          N/A
HALEAKALA SUMM   N/A     54   1  12 NE14        N/A
MAALAEA BAY*   NOT AVBL
HALEAKALA*     NOT AVBL
KAUPO GAP*     NOT AVBL
KULA 1*          N/A     63  58  85 NW3         N/A
$$

HIZ023>026-170400-
BIG ISLAND OF HAWAII COAST AND LOWER SLOPES-

CITY           SKY/WX    TMP DP  RH WIND       PRES   REMARKS
KAILUA KONA    SUNNY     85  73  67 S15       29.86S HX  91
HILO           SUNNY     85  71  63 NE8       29.90S HX  90
HONOKAA*       NOT AVBL
KAWAIHAE MWT*    N/A     86 N/A N/A W10         N/A
KAWAIHAE*        N/A     82 N/A N/A SW9         N/A
SOUTH POINT*     N/A     75 N/A N/A NE8         N/A
UPOLU AIRPORT*   N/A    N/A N/A N/A NE18G24     N/A
KAMUELA*       CLEAR     73  63  68 N10       30.03R
HAKALAU*         N/A     58  57  98 CALM        N/A
KALOKO-HONOKO*   N/A     84  72  65 S7        29.87R
PALI 2*          N/A     75  63  64 NE12G21     N/A
KEALAKOMO*       N/A     88  70  55 NE12G26     N/A  HX  92
KAUPULEHU*       N/A     84  63  48 W8G16       N/A
KAPAPALA*        N/A     72  70  94 CALM        N/A
LOWER KAHUKU*  NOT AVBL
PUHE CS*       NOT AVBL
PUHO CS*         N/A     84  70  61 W3          N/A
PTA KEAMUKU*     N/A    N/A N/A N/A N16G22      N/A
WAIKOLOA*        N/A     84  66  54 NW3G25      N/A
$$

HIZ027>028-170400-
BIG ISLAND OF HAWAII INTERIOR AND SUMMMITS-

CITY           SKY/WX    TMP DP  RH WIND       PRES   REMARKS
BRADSHAW FIELD PTSUNNY   67  57  70 W10G16    30.27R
MK VISITOR CEN NOT AVBL
MAUNA KEA*       N/A     45  16  31 SE7         N/A
MAUNA LOA*       N/A     48  45  87 MISG        N/A
MAUNA LOA 1*     N/A     50  45  81 MISG        N/A
PTA KIPUKA*      N/A     70  59  68 N8G15       N/A
PTA RANGE 17*    N/A     68  57  68 W9G20       N/A
PTA WEST*        N/A     73  59  60 NW12G18     N/A
NENE CABIN*    NOT AVBL
AHUMOA*          N/A     61  57  87 N6          N/A
PTA PORTABLE*  NOT AVBL
PUU MALI*      NOT AVBL
$$

HIC003-170400-
NORTHWEST ISLANDS-

CITY           SKY/WX    TMP DP  RH WIND       PRES   REMARKS
MIDWAY ISLAND  SUNNY     88  75  66 E8        30.06F HX  97
MIDWAY NOS*    NOT AVBL
FRENCH FRIGATE NOT AVBL
$$

PHZ110>124-180-170400-
BUOY REPORTS

STATION/POSITION TIME  TEMP    WIND        PRES    WAVE   SWELL
                       AIR SEA DIR/SP/G            HT/PER HT/DIR
                 (UTC) (F)     (DEG/KT/KT) (MB)    (FT/S) (FT/D)
BUOY 51001       NOT AVBL
BUOY 51101       NOT AVBL
BUOY 51100       0300   76 81   30/  2/  6 1013.1
BUOY 51003       0300   82 84   50/ 10/ 14 1012.0R   5/15   5
BUOY 51004       0157   80 82   90/  8/ 10 1011.9F   6/15   5/170
BARBERS PT BUOY  NOT AVBL
WAIMEA BAY BUOY  0300      82                N/A     5/12   3/320
KAILUA BAY BUOY  0300      83                N/A     4/ 9   2/ 30
LANAI BUOY       NOT AVBL
BARBERS PT 2     0300      83                N/A     5/14   3/180
PAUWELA MAUI     0300      82                N/A     4/10   2/360
HILO             0300      82                N/A     5/ 9   2/ 10
KANEOHE BAY BUOY NOT AVBL
HANALEI KAUAI    NOT AVBL
KAHULUI HARBOR   0300   80 84   30/ 14/ 17 1012.6R
HONOLULU HARBOR  0300   84     360/  3/  7 1012.3R
KILO NALU        NOT AVBL
HILO HARBOR      0300   82      20/  7/  9 1012.2R
MOKUOLOE         0300   82 86   30/  6/  8 1013.3R
NAWILIWILI       0300      84                N/A
WHOTS BUOY       NOT AVBL
BUOY 51028       NOT AVBL
$$

......................KEY........................................
  SKY/WX - SKY CONDITIONS/PRESENT WEATHER
  TMP    - TEMPERATURE IN FAHRENHEIT
  DWPT   - DEWPOINT IN FAHRENHEIT
  RH     - RELATIVE HUMIDITY IN PERCENT
  WIND   - DIRECTION AND SPEED /MPH FOR ISLANDS...KTS FOR BUOYS/
  PRES   - MEAN SEA LEVEL PRESSURE IN INCHES OF HG
  VSB    - VISIBILITY IN MILES
  HX     - HEAT INDEX
  WCI    - WIND CHILL INDEX
  VRB    - VARIABLE WIND DIRECTION
  N/A    - NOT AVAILABLE



USA.gov is the U.S. government's official web portal to all federal, state and local government web resources and services.